User: anonymous   Login
Location: Unspecified
(0.0000°N, 0.0000°E)
Time: 08:52:09
(UTC+00:00)
Language:

STARLINK-35529 - Orbit

View from above orbital plane
View from above orbital plane
View from above satellite
View from above satellite

Ground track
Ground track

The orbit is defined by the following mean orbital elements,

1 66259U          26145.41042294 +.00000000 +00000-0 +66881-3 0 00007
2 66259  53.1588 287.4682 0001075  90.5367 269.5757 15.30212983    05
Epoch (UTC): 25 May 2026 09:51:00
Eccentricity: 0.0001075
inclination: 53.1588°
perigee height: 474 km
apogee height: 476 km
right ascension of ascending node: 287.4682°
argument of perigee: 90.5367°
revolutions per day: 15.30212983
mean anomaly at epoch: 269.5757°

The dashed part of the orbit path shows where the satellite is in the earth's shadow,  

DLR